Location: Breitenfeld
(46.8500°N, 15.6333°E)
Time: 00:38:30
(UTC+00:00)

RESURS DK-1 - Pass Details

Date: 09 April 2020
Orbit: 557 x 561 km, 69.9° (Epoch: 03 June)

Event Time Altitude Azimuth Distance (km) Brightness Sun altitude
Rises 20:45:09 0° 326° (NW) 2,759 7.2 -27.6°
Reaches altitude 10° 20:47:25 10° 320° (NW) 1,858 6.0 -27.9°
Enters shadow 20:50:15 36° 291° (WNW) 909 3.8 -28.2°
